This demonstration page uses our WeatherBlox Daily Observations layout. Learn more.

Left ArrowRight Arrow

Hourly Observations for May 11, 2021

Temp ( °F °C ) Dew Point ( °F °C ) Humidity (%) Winds ( mph kmh ) Pressure ( in mb ) Visibility ( mi km ) Precip ( " mm )
12:54 am 00:54 Clear 46 7.8 39 3.9 77 77 N 8 13 30.23 1024 10 16.0934 N/A
1:54 am 01:54 Clear 45 7.2 37 2.8 74 74 NNE 8 13 30.24 1024 10 16.0934 N/A
2:54 am 02:54 Clear 47 8.3 36 2.2 66 66 ENE 7 11 30.25 1025 10 16.0934 N/A
3:54 am 03:54 Clear 45 7.2 36 2.2 71 71 NNE 5 7 30.26 1025 10 16.0934 N/A
4:54 am 04:54 Clear 45 7.2 36 2.2 71 71 N 5 7 30.28 1026 10 16.0934 N/A
5:54 am 05:54 Clear 41 5 36 2.2 82 82 N 8 13 30.29 1026 10 16.0934 N/A
6:54 am 06:54 Sunny 44 6.7 37 2.8 76 76 N 7 11 30.3 1026 10 16.0934 N/A
7:54 am 07:54 Sunny 46 7.8 38 3.3 73 73 NNE 7 11 30.33 1027 10 16.0934 N/A
8:54 am 08:54 Sunny 49 9.4 39 3.9 69 69 NE 8 13 30.35 1028 10 16.0934 N/A
9:54 am 09:54 Sunny 53 11.7 39 3.9 59 59 ENE 7 11 30.36 1028 10 16.0934 N/A
10:54 am 10:54 Sunny 57 13.9 36 2.2 45 45 E 12 19 30.32 1027 10 16.0934 N/A
11:54 am 11:54 Sunny 62 16.7 33 0.6 34 34 NE 15 24 30.29 1026 10 16.0934 N/A
12:54 pm 12:54 Sunny 61 16.1 31 -0.6 32 32 NE 10 17 30.3 1026 10 16.0934 N/A
1:54 pm 13:54 Sunny 61 16.1 31 -0.6 32 32 ENE 13 20 30.3 1026 10 16.0934 N/A
2:54 pm 14:54 Mostly Cloudy 63 17.2 31 -0.6 30 30 undefined N/A 30.29 1026 10 16.0934 N/A
3:54 pm 15:54 Mostly Sunny 62 16.7 30 -1.1 30 30 VRB 3 6 30.29 1026 10 16.0934 N/A
4:54 pm 16:54 Mostly Sunny 62 16.7 30 -1.1 30 30 NE 7 11 30.29 1026 10 16.0934 N/A
5:54 pm 17:54 Sunny 60 15.6 31 -0.6 33 33 NNE 13 20 30.29 1026 10 16.0934 N/A
6:54 pm 18:54 Sunny 60 15.6 32 undefined 35 35 ENE 12 19 30.29 1026 10 16.0934 N/A
7:54 pm 19:54 Sunny 58 14.4 32 undefined 38 38 ENE 9 15 30.3 1026 10 16.0934 N/A
8:54 pm 20:54 Clear 53 11.7 33 0.6 47 47 NE 6 9 30.34 1027 10 16.0934 N/A
9:54 pm 21:54 Clear 51 10.6 33 0.6 50 50 E 6 9 30.36 1028 10 16.0934 N/A
10:54 pm 22:54 Clear 48 8.9 34 1.1 58 58 E 6 9 30.37 1029 10 16.0934 N/A
11:54 pm 23:54 Clear 50 10 35 1.7 57 57 N N/A 30.38 1029 10 16.0934 N/A

Powered by AerisWeather